Location: Houhaj�rvi
(61.2833°N, 23.0000°E)
Time: 20:41:31
(UTC+00:00)

NOSS 3-1 (A) - Pass Details

Date: 27 February 2020
Orbit: 761 x 1452 km, 63.4° (Epoch: 26 March)

Event Time Altitude Azimuth Distance (km) Brightness Sun altitude
Rises 17:28:36 0° 224° (SW) 3,399 6.9 -13.1°
Reaches altitude 10° 17:30:55 10° 221° (SW) 2,535 6.2 -13.3°
Maximum altitude 17:36:43 64° 142° (SE) 1,087 3.6 -14.0°
Enters shadow 17:42:59 13° 64° (ENE) 2,765 5.4 -14.8°
